| time (UTC) | temp F | wind direction | speed MPH | gust MPH | rain 1hr in | rain 24hr in | rain mn in | humidity % | barometer mb |
| 20260508100136 | 62 | 175 | 7.0 | 13.0 | 0.00 | 0.00 | 0.05 | 83 | 1011.8 |
| 20260508100052 | 62 | 200 | 7.0 | 14.0 | 0.00 | 0.00 | 0.05 | 82 | 1015.2 |
| 20260508095637 | 62 | 132 | 14.0 | 15.0 | 0.00 | 0.00 | 0.05 | 84 | 1012.0 |
| 20260508095553 | 62 | 158 | 9.0 | 13.0 | 0.00 | 0.00 | 0.05 | 83 | 1015.2 |
| 20260508095136 | 62 | 152 | 9.0 | 14.0 | 0.00 | 0.00 | 0.05 | 84 | 1012.1 |
| 20260508095052 | 62 | 117 | 10.0 | 16.0 | 0.00 | 0.00 | 0.05 | 84 | 1015.6 |
| 20260508094636 | 62 | 147 | 9.0 | 14.0 | 0.00 | 0.00 | 0.05 | 84 | 1012.1 |
| 20260508094554 | 62 | 143 | 8.0 | 17.0 | 0.00 | 0.00 | 0.05 | 85 | 1015.2 |
| 20260508094136 | 61 | 133 | 9.0 | 18.0 | 0.00 | 0.00 | 0.05 | 86 | 1011.9 |
| 20260508094053 | 61 | 114 | 11.0 | 14.0 | 0.00 | 0.00 | 0.05 | 85 | 1015.2 |
| 20260508093636 | 61 | 143 | 10.0 | 20.0 | 0.00 | 0.00 | 0.05 | 87 | 1011.8 |
| 20260508093552 | 61 | 167 | 16.0 | 17.0 | 0.00 | 0.00 | 0.05 | 86 | 1015.2 |
| 20260508093137 | 61 | 145 | 14.0 | 16.0 | 0.00 | 0.00 | 0.05 | 87 | 1011.7 |
| 20260508093054 | 61 | 141 | 8.0 | 15.0 | 0.00 | 0.00 | 0.05 | 86 | 1015.2 |
| 20260508092636 | 61 | 145 | 14.0 | 16.0 | 0.00 | 0.00 | 0.05 | 85 | 1011.8 |
| 20260508092554 | 62 | 167 | 14.0 | 18.0 | 0.00 | 0.00 | 0.05 | 85 | 1015.2 |
| 20260508092137 | 62 | 146 | 13.0 | 17.0 | 0.00 | 0.00 | 0.05 | 84 | 1011.8 |
| 20260508092052 | 62 | 145 | 14.0 | 17.0 | 0.00 | 0.00 | 0.05 | 84 | 1015.2 |
| 20260508091637 | 63 | 154 | 13.0 | 20.0 | 0.00 | 0.00 | 0.05 | 82 | 1011.6 |
| 20260508091552 | 63 | 147 | 6.0 | 16.0 | 0.00 | 0.00 | 0.05 | 82 | 1014.9 |
| 20260508091137 | 64 | 154 | 13.0 | 17.0 | 0.00 | 0.00 | 0.05 | 79 | 1011.5 |
| 20260508091053 | 64 | 177 | 15.0 | 18.0 | 0.00 | 0.00 | 0.05 | 78 | 1014.9 |
| 20260508090637 | 64 | 113 | 5.0 | 7.0 | 0.00 | 0.00 | 0.05 | 79 | 1011.4 |
| 20260508090552 | 64 | 136 | 6.0 | 7.0 | 0.00 | 0.00 | 0.05 | 79 | 1014.9 |
| 20260508090137 | 64 | 113 | 5.0 | 5.0 | 0.00 | 0.00 | 0.05 | 79 | 1011.4 |
| 20260508090054 | 64 | 88 | 2.0 | 7.0 | 0.00 | 0.00 | 0.05 | 79 | 1014.6 |
| 20260508085636 | 64 | 161 | 4.0 | 10.0 | 0.00 | 0.00 | 0.05 | 79 | 1011.4 |
| 20260508085554 | 64 | 151 | 4.0 | 10.0 | 0.00 | 0.00 | 0.05 | 78 | 1014.9 |
| 20260508085137 | 65 | 140 | 8.0 | 13.0 | 0.00 | 0.00 | 0.05 | 77 | 1011.4 |
| 20260508085057 | 65 | 165 | 4.0 | 9.0 | 0.00 | 0.00 | 0.05 | 77 | 1014.9 |
| 20260508084637 | 65 | 121 | 4.0 | 13.0 | 0.00 | 0.00 | 0.05 | 75 | 1011.2 |
| 20260508084554 | 65 | 127 | 9.0 | 13.0 | 0.00 | 0.00 | 0.05 | 76 | 1014.6 |
| 20260508084136 | 65 | 150 | 5.0 | 13.0 | 0.00 | 0.00 | 0.05 | 74 | 1011.2 |
| 20260508084051 | 65 | 143 | 4.0 | 10.0 | 0.00 | 0.00 | 0.05 | 75 | 1014.6 |
| 20260508083636 | 66 | 150 | 5.0 | 13.0 | 0.00 | 0.00 | 0.05 | 74 | 1011.2 |
| 20260508083550 | 66 | 157 | 8.0 | 9.0 | 0.00 | 0.00 | 0.05 | 75 | 1014.6 |
| 20260508083137 | 65 | 130 | 4.0 | 7.0 | 0.00 | 0.00 | 0.05 | 77 | 1011.1 |
| 20260508083052 | 65 | 120 | 5.0 | 11.0 | 0.00 | 0.00 | 0.05 | 76 | 1014.6 |
| 20260508082636 | 64 | 102 | 5.0 | 7.0 | 0.00 | 0.00 | 0.05 | 78 | 1011.3 |
| 20260508082550 | 64 | 204 | 3.0 | 9.0 | 0.00 | 0.00 | 0.05 | 77 | 1014.6 |
| 20260508082136 | 64 | 93 | 5.0 | 12.0 | 0.00 | 0.00 | 0.05 | 78 | 1011.0 |
| 20260508082052 | 64 | 104 | 4.0 | 9.0 | 0.00 | 0.00 | 0.05 | 78 | 1014.2 |
| 20260508081636 | 64 | 114 | 10.0 | 11.0 | 0.00 | 0.00 | 0.05 | 77 | 1011.1 |
| 20260508081551 | 64 | 94 | 9.0 | 10.0 | 0.00 | 0.00 | 0.05 | 77 | 1014.6 |
| 20260508081136 | 64 | 106 | 8.0 | 11.0 | 0.00 | 0.00 | 0.05 | 77 | 1010.9 |
| 20260508081052 | 64 | 111 | 10.0 | 11.0 | 0.00 | 0.00 | 0.05 | 77 | 1014.2 |
| 20260508080637 | 64 | 106 | 8.0 | 13.0 | 0.00 | 0.00 | 0.05 | 77 | 1011.0 |
| 20260508080552 | 64 | 108 | 6.0 | 13.0 | 0.00 | 0.00 | 0.05 | 77 | 1014.2 |
| 20260508080136 | 64 | 104 | 4.0 | 9.0 | 0.00 | 0.00 | 0.05 | 77 | 1010.7 |
| 20260508080052 | 64 | 100 | 7.0 | 10.0 | 0.00 | 0.00 | 0.05 | 77 | 1014.2 |
| 20260508075637 | 63 | 99 | 6.0 | 11.0 | 0.00 | 0.00 | 0.05 | 78 | 1010.9 |
| 20260508075552 | 63 | 140 | 7.0 | 11.0 | 0.00 | 0.00 | 0.05 | 78 | 1014.2 |
| 20260508075136 | 63 | 99 | 1.0 | 11.0 | 0.00 | 0.00 | 0.05 | 79 | 1011.0 |
| 20260508075050 | 63 | 71 | 7.0 | 8.0 | 0.00 | 0.00 | 0.05 | 79 | 1014.2 |
| 20260508074636 | 63 | 154 | 6.0 | 6.0 | 0.00 | 0.00 | 0.05 | 80 | 1010.9 |
| 20260508074550 | 63 | 98 | 2.0 | 6.0 | 0.00 | 0.00 | 0.05 | 80 | 1014.2 |
| 20260508074136 | 63 | 120 | 3.0 | 8.0 | 0.00 | 0.00 | 0.05 | 80 | 1010.8 |
| 20260508074051 | 63 | 96 | 1.0 | 9.0 | 0.00 | 0.00 | 0.05 | 80 | 1014.2 |
| 20260508073637 | 62 | 193 | 1.0 | 8.0 | 0.00 | 0.00 | 0.05 | 81 | 1010.9 |
| 20260508073552 | 63 | 121 | 4.0 | 8.0 | 0.00 | 0.00 | 0.05 | 81 | 1014.2 |
| 20260508073137 | 62 | 135 | 5.0 | 8.0 | 0.00 | 0.00 | 0.05 | 81 | 1010.8 |
| 20260508073052 | 62 | 163 | 6.0 | 9.0 | 0.00 | 0.00 | 0.05 | 81 | 1014.2 |
| 20260508072636 | 63 | 48 | 1.0 | 5.0 | 0.00 | 0.00 | 0.05 | 82 | 1011.0 |
| 20260508072552 | 63 | 122 | 11.0 | 13.0 | 0.00 | 0.00 | 0.05 | 82 | 1014.2 |
| 20260508072136 | 62 | 48 | 1.0 | 5.0 | 0.00 | 0.00 | 0.05 | 82 | 1010.8 |
| 20260508072052 | 62 | 120 | 4.0 | 5.0 | 0.00 | 0.00 | 0.05 | 82 | 1014.2 |
| 20260508071636 | 62 | 144 | 1.0 | 4.0 | 0.00 | 0.00 | 0.05 | 82 | 1011.1 |
| 20260508071550 | 62 | 86 | 3.0 | 4.0 | 0.00 | 0.00 | 0.05 | 82 | 1014.2 |
| 20260508071136 | 62 | 144 | 2.0 | 4.0 | 0.00 | 0.00 | 0.05 | 82 | 1010.9 |
| 20260508071053 | 62 | 35 | 2.0 | 6.0 | 0.00 | 0.00 | 0.05 | 81 | 1014.2 |
| 20260508070637 | 62 | 100 | 2.0 | 5.0 | 0.00 | 0.00 | 0.05 | 81 | 1010.8 |
| 20260508070554 | 62 | 205 | 2.0 | 5.0 | 0.00 | 0.00 | 0.05 | 81 | 1014.2 |
| 20260508070136 | 62 | 118 | 3.0 | 6.0 | 0.00 | 0.00 | 0.05 | 80 | 1010.6 |
| 20260508070050 | 62 | 79 | 3.0 | 7.0 | 0.00 | 0.00 | 0.05 | 80 | 1014.2 |
| 20260508065636 | 62 | 133 | 1.0 | 6.0 | 0.00 | 0.00 | 0.05 | 80 | 1011.0 |
| 20260508065551 | 63 | 116 | 3.0 | 8.0 | 0.00 | 0.00 | 0.05 | 80 | 1014.2 |
| 20260508065136 | 62 | 125 | 4.0 | 7.0 | 0.00 | 0.00 | 0.05 | 81 | 1010.8 |
| 20260508065052 | 62 | 294 | 0.0 | 8.0 | 0.00 | 0.00 | 0.05 | 80 | 1014.2 |
| 20260508064637 | 62 | 147 | 4.0 | 7.0 | 0.00 | 0.00 | 0.05 | 81 | 1010.8 |
| 20260508064555 | 62 | 104 | 7.0 | 7.0 | 0.00 | 0.00 | 0.05 | 82 | 1013.9 |
| 20260508064137 | 62 | 98 | 4.0 | 6.0 | 0.00 | 0.00 | 0.05 | 83 | 1010.6 |
| 20260508064054 | 62 | 104 | 3.0 | 4.0 | 0.00 | 0.00 | 0.05 | 83 | 1013.9 |
| 20260508063637 | 62 | 87 | 5.0 | 7.0 | 0.00 | 0.00 | 0.05 | 83 | 1010.7 |
| 20260508063555 | 62 | 72 | 4.0 | 4.0 | 0.00 | 0.00 | 0.05 | 83 | 1013.9 |
| 20260508063136 | 62 | 87 | 5.0 | 7.0 | 0.00 | 0.00 | 0.05 | 83 | 1010.7 |
| 20260508063052 | 62 | 92 | 4.0 | 6.0 | 0.00 | 0.00 | 0.05 | 82 | 1013.9 |
| 20260508062637 | 62 | 133 | 0.0 | 5.0 | 0.00 | 0.00 | 0.05 | 83 | 1010.7 |
| 20260508062553 | 62 | 70 | 5.0 | 5.0 | 0.00 | 0.00 | 0.05 | 82 | 1013.9 |
| 20260508062136 | 62 | 107 | 4.0 | 5.0 | 0.00 | 0.00 | 0.05 | 84 | 1010.6 |
| 20260508062054 | 62 | 100 | 3.0 | 5.0 | 0.00 | 0.00 | 0.05 | 83 | 1013.9 |
| 20260508061636 | 62 | 102 | 2.0 | 6.0 | 0.00 | 0.00 | 0.05 | 84 | 1010.6 |
| 20260508061553 | 62 | 122 | 3.0 | 5.0 | 0.00 | 0.00 | 0.05 | 84 | 1013.9 |
| 20260508061137 | 62 | 102 | 2.0 | 6.0 | 0.00 | 0.00 | 0.05 | 84 | 1010.4 |
| 20260508061052 | 62 | 97 | 3.0 | 7.0 | 0.00 | 0.00 | 0.05 | 84 | 1013.9 |
| 20260508060636 | 61 | 66 | 3.0 | 5.0 | 0.00 | 0.00 | 0.05 | 84 | 1010.4 |
| 20260508060553 | 61 | 108 | 3.0 | 8.0 | 0.00 | 0.00 | 0.05 | 84 | 1013.9 |
| 20260508060137 | 61 | 110 | 4.0 | 7.0 | 0.00 | 0.00 | 0.05 | 84 | 1010.6 |
| 20260508060053 | 61 | 73 | 2.0 | 5.0 | 0.00 | 0.00 | 0.05 | 84 | 1013.9 |
| 20260508055636 | 61 | 321 | 1.0 | 7.0 | 0.00 | 0.00 | 0.05 | 84 | 1010.4 |
| 20260508055552 | 61 | 51 | 4.0 | 5.0 | 0.00 | 0.00 | 0.05 | 85 | 1013.9 |
| 20260508055136 | 60 | 321 | 1.0 | 5.0 | 0.00 | 0.00 | 0.05 | 85 | 1010.2 |
| 20260508055052 | 60 | 318 | 2.0 | 5.0 | 0.00 | 0.00 | 0.05 | 85 | 1013.5 |
| 20260508054636 | 60 | 94 | 2.0 | 5.0 | 0.00 | 0.00 | 0.05 | 85 | 1010.1 |
| 20260508054554 | 60 | 74 | 3.0 | 5.0 | 0.00 | 0.00 | 0.05 | 85 | 1013.2 |
| 20260508054136 | 60 | 94 | 2.0 | 5.0 | 0.00 | 0.00 | 0.05 | 85 | 1010.0 |
| 20260508054052 | 60 | 224 | 2.0 | 6.0 | 0.00 | 0.00 | 0.05 | 85 | 1013.2 |
| 20260508053636 | 60 | 110 | 3.0 | 5.0 | 0.00 | 0.00 | 0.05 | 86 | 1009.9 |
| 20260508053552 | 60 | 100 | 4.0 | 5.0 | 0.00 | 0.00 | 0.05 | 86 | 1013.2 |
| 20260508053137 | 59 | 73 | 4.0 | 5.0 | 0.00 | 0.00 | 0.05 | 86 | 1009.8 |
| 20260508053052 | 60 | 115 | 3.0 | 6.0 | 0.00 | 0.00 | 0.05 | 86 | 1013.2 |
| 20260508052636 | 59 | 234 | 1.0 | 4.0 | 0.00 | 0.00 | 0.05 | 86 | 1009.8 |
| 20260508052552 | 59 | 100 | 3.0 | 4.0 | 0.00 | 0.00 | 0.05 | 86 | 1013.2 |
| 20260508052136 | 59 | 234 | 1.0 | 4.0 | 0.00 | 0.00 | 0.05 | 87 | 1009.8 |
| 20260508052054 | 59 | 122 | 1.0 | 7.0 | 0.00 | 0.00 | 0.05 | 86 | 1013.2 |
| 20260508051636 | 59 | 0 | 0.0 | 3.0 | 0.00 | 0.00 | 0.05 | 87 | 1009.7 |
| 20260508051552 | 59 | 113 | 2.0 | 4.0 | 0.00 | 0.00 | 0.05 | 87 | 1013.2 |
| 20260508051136 | 59 | 55 | 2.0 | 3.0 | 0.00 | 0.00 | 0.05 | 88 | 1009.5 |
| 20260508051052 | 58 | 114 | 4.0 | 4.0 | 0.00 | 0.00 | 0.05 | 88 | 1012.9 |
| 20260508050636 | 58 | 36 | 3.0 | 3.0 | 0.00 | 0.00 | 0.05 | 88 | 1009.7 |
| 20260508050551 | 58 | 50 | 3.0 | 3.0 | 0.00 | 0.00 | 0.05 | 88 | 1012.9 |
| 20260508050136 | 58 | 36 | 3.0 | 3.0 | 0.00 | 0.00 | 0.05 | 88 | 1009.6 |
| 20260508050054 | 58 | 81 | 3.0 | 5.0 | 0.00 | 0.00 | 0.05 | 88 | 1012.9 |
| 20260508045636 | 58 | 92 | 3.0 | 3.0 | 0.00 | 0.00 | 0.05 | 89 | 1009.5 |
| 20260508045550 | 58 | 88 | 1.0 | 4.0 | 0.00 | 0.00 | 0.05 | 89 | 1012.9 |
| 20260508045136 | 58 | 92 | 3.0 | 7.0 | 0.00 | 0.00 | 0.05 | 89 | 1009.3 |
| 20260508045050 | 58 | 100 | 5.0 | 7.0 | 0.00 | 0.00 | 0.05 | 89 | 1012.9 |
| 20260508044637 | 58 | 69 | 3.0 | 6.0 | 0.00 | 0.00 | 0.05 | 90 | 1009.4 |
| 20260508044551 | 57 | 60 | 4.0 | 4.0 | 0.00 | 0.00 | 0.05 | 89 | 1012.9 |
| 20260508044136 | 57 | 69 | 3.0 | 6.0 | 0.00 | 0.00 | 0.05 | 90 | 1009.4 |
| 20260508044050 | 57 | 80 | 2.0 | 5.0 | 0.00 | 0.00 | 0.05 | 90 | 1012.9 |
| 20260508043637 | 57 | 99 | 4.0 | 5.0 | 0.00 | 0.00 | 0.05 | 90 | 1009.4 |
| 20260508043551 | 57 | 62 | 3.0 | 6.0 | 0.00 | 0.00 | 0.05 | 90 | 1012.9 |
| 20260508043136 | 57 | 99 | 4.0 | 5.0 | 0.00 | 0.00 | 0.05 | 91 | 1009.5 |
| 20260508043052 | 57 | 47 | 1.0 | 5.0 | 0.00 | 0.00 | 0.05 | 91 | 1012.9 |
| 20260508042636 | 57 | 73 | 1.0 | 6.0 | 0.00 | 0.00 | 0.05 | 91 | 1009.4 |
| 20260508042551 | 57 | 88 | 3.0 | 5.0 | 0.00 | 0.00 | 0.05 | 91 | 1012.9 |
| 20260508042136 | 57 | 73 | 1.0 | 6.0 | 0.00 | 0.00 | 0.05 | 91 | 1009.4 |
| 20260508042051 | 57 | 83 | 3.0 | 4.0 | 0.00 | 0.00 | 0.05 | 91 | 1012.9 |
| 20260508041636 | 57 | 91 | 3.0 | 4.0 | 0.00 | 0.00 | 0.05 | 91 | 1009.3 |
| 20260508041552 | 57 | 63 | 3.0 | 5.0 | 0.00 | 0.00 | 0.05 | 91 | 1012.5 |
| 20260508041136 | 57 | 107 | 3.0 | 6.0 | 0.00 | 0.00 | 0.05 | 91 | 1009.4 |
| 20260508041054 | 57 | 130 | 0.0 | 5.0 | 0.00 | 0.00 | 0.05 | 91 | 1012.9 |
| 20260508040636 | 57 | 97 | 3.0 | 5.0 | 0.00 | 0.00 | 0.05 | 91 | 1009.4 |
| 20260508040552 | 57 | 89 | 3.0 | 6.0 | 0.00 | 0.00 | 0.05 | 91 | 1012.9 |
| 20260508040137 | 57 | 97 | 3.0 | 5.0 | 0.00 | 0.00 | 0.05 | 91 | 1009.2 |
| 20260508040053 | 57 | 108 | 3.0 | 5.0 | 0.00 | 0.00 | 0.05 | 91 | 1012.9 |
| 20260508035636 | 57 | 150 | 2.0 | 7.0 | 0.00 | 0.00 | 0.05 | 91 | 1009.4 |
| 20260508035554 | 57 | 107 | 3.0 | 5.0 | 0.00 | 0.00 | 0.05 | 91 | 1012.9 |
| 20260508035136 | 57 | 105 | 5.0 | 5.0 | 0.00 | 0.00 | 0.05 | 91 | 1009.4 |
| 20260508035051 | 57 | 103 | 4.0 | 6.0 | 0.00 | 0.00 | 0.05 | 91 | 1012.5 |
| 20260508034636 | 57 | 105 | 6.0 | 6.0 | 0.00 | 0.00 | 0.05 | 91 | 1009.2 |
| 20260508034550 | 57 | 86 | 2.0 | 6.0 | 0.00 | 0.00 | 0.05 | 91 | 1012.5 |
| 20260508034137 | 57 | 105 | 3.0 | 6.0 | 0.00 | 0.00 | 0.05 | 91 | 1009.3 |
| 20260508034050 | 57 | 121 | 3.0 | 6.0 | 0.00 | 0.00 | 0.05 | 91 | 1012.9 |
| 20260508033636 | 57 | 190 | 1.0 | 6.0 | 0.00 | 0.00 | 0.05 | 91 | 1009.2 |
| 20260508033552 | 57 | 86 | 3.0 | 5.0 | 0.00 | 0.00 | 0.05 | 91 | 1012.5 |
| 20260508033136 | 57 | 102 | 5.0 | 5.0 | 0.00 | 0.00 | 0.05 | 92 | 1009.1 |
| 20260508033052 | 57 | 77 | 2.0 | 6.0 | 0.00 | 0.00 | 0.05 | 91 | 1012.5 |
| 20260508032636 | 57 | 94 | 3.0 | 5.0 | 0.00 | 0.00 | 0.05 | 92 | 1009.2 |
| 20260508032552 | 57 | 103 | 5.0 | 5.0 | 0.00 | 0.00 | 0.05 | 92 | 1012.5 |
| 20260508032136 | 57 | 94 | 3.0 | 5.0 | 0.00 | 0.00 | 0.05 | 92 | 1009.2 |
| 20260508032059 | 57 | 96 | 3.0 | 5.0 | 0.00 | 0.00 | 0.05 | 92 | 1012.5 |
| 20260508031636 | 57 | 101 | 2.0 | 4.0 | 0.00 | 0.00 | 0.05 | 92 | 1009.2 |
| 20260508031551 | 57 | 76 | 3.0 | 5.0 | 0.00 | 0.00 | 0.05 | 92 | 1012.5 |
| 20260508031136 | 57 | 80 | 3.0 | 6.0 | 0.00 | 0.00 | 0.05 | 92 | 1009.1 |
| 20260508031051 | 57 | 110 | 0.0 | 4.0 | 0.00 | 0.00 | 0.05 | 92 | 1012.5 |
| 20260508030636 | 57 | 68 | 3.0 | 6.0 | 0.00 | 0.00 | 0.05 | 92 | 1008.9 |
| 20260508030552 | 57 | 81 | 3.0 | 6.0 | 0.00 | 0.00 | 0.05 | 92 | 1012.2 |
| 20260508030136 | 57 | 42 | 2.0 | 8.0 | 0.00 | 0.00 | 0.05 | 92 | 1009.1 |
| 20260508030054 | 57 | 75 | 3.0 | 8.0 | 0.00 | 0.00 | 0.05 | 92 | 1012.5 |
| 20260508025636 | 57 | 54 | 4.0 | 5.0 | 0.00 | 0.00 | 0.05 | 92 | 1008.8 |
| 20260508025551 | 57 | 47 | 5.0 | 6.0 | 0.00 | 0.00 | 0.05 | 92 | 1012.5 |
| 20260508025136 | 57 | 70 | 5.0 | 5.0 | 0.00 | 0.00 | 0.05 | 92 | 1009.0 |
| 20260508025050 | 57 | 84 | 3.0 | 5.0 | 0.00 | 0.00 | 0.05 | 92 | 1012.5 |
| 20260508024636 | 57 | 82 | 3.0 | 5.0 | 0.00 | 0.00 | 0.05 | 92 | 1008.8 |
| 20260508024550 | 57 | 59 | 3.0 | 5.0 | 0.00 | 0.00 | 0.05 | 92 | 1012.5 |
| 20260508024136 | 57 | 66 | 3.0 | 4.0 | 0.00 | 0.00 | 0.05 | 92 | 1008.9 |
| 20260508024050 | 57 | 64 | 3.0 | 5.0 | 0.00 | 0.00 | 0.05 | 92 | 1012.2 |
| 20260508023636 | 58 | 86 | 4.0 | 4.0 | 0.00 | 0.00 | 0.05 | 92 | 1008.9 |
| 20260508023552 | 58 | 40 | 3.0 | 4.0 | 0.00 | 0.00 | 0.05 | 92 | 1012.5 |
| 20260508023136 | 58 | 86 | 4.0 | 5.0 | 0.00 | 0.00 | 0.05 | 92 | 1008.6 |
| 20260508023054 | 58 | 53 | 3.0 | 7.0 | 0.00 | 0.00 | 0.05 | 92 | 1012.2 |
| 20260508022636 | 57 | 95 | 3.0 | 5.0 | 0.00 | 0.00 | 0.05 | 92 | 1009.0 |
| 20260508022552 | 57 | 69 | 3.0 | 6.0 | 0.00 | 0.00 | 0.05 | 92 | 1012.2 |
| 20260508022136 | 57 | 75 | 3.0 | 4.0 | 0.00 | 0.00 | 0.05 | 92 | 1009.0 |
| 20260508022050 | 57 | 79 | 3.0 | 5.0 | 0.00 | 0.00 | 0.05 | 92 | 1012.5 |
| 20260508021636 | 57 | 81 | 2.0 | 5.0 | 0.00 | 0.00 | 0.05 | 92 | 1008.7 |
| 20260508021553 | 57 | 99 | 2.0 | 4.0 | 0.00 | 0.00 | 0.05 | 92 | 1012.2 |
| 20260508021136 | 57 | 106 | 1.0 | 4.0 | 0.00 | 0.00 | 0.05 | 92 | 1008.7 |
| 20260508021051 | 57 | 98 | 2.0 | 5.0 | 0.00 | 0.00 | 0.05 | 92 | 1012.2 |
| 20260508020636 | 57 | 180 | 0.0 | 4.0 | 0.00 | 0.00 | 0.05 | 92 | 1008.9 |
| 20260508020550 | 57 | 73 | 1.0 | 4.0 | 0.00 | 0.00 | 0.05 | 92 | 1012.2 |
| 20260508020136 | 57 | 92 | 2.0 | 3.0 | 0.00 | 0.00 | 0.05 | 92 | 1008.8 |
| 20260508020051 | 57 | 107 | 4.0 | 4.0 | 0.00 | 0.00 | 0.05 | 92 | 1012.2 |
| 20260508015636 | 57 | 92 | 2.0 | 3.0 | 0.00 | 0.00 | 0.05 | 92 | 1009.0 |
| 20260508015550 | 57 | 112 | 1.0 | 3.0 | 0.00 | 0.00 | 0.05 | 92 | 1012.2 |
| 20260508015136 | 57 | 52 | 1.0 | 3.0 | 0.00 | 0.00 | 0.05 | 92 | 1009.0 |
| 20260508015050 | 57 | 116 | 1.0 | 3.0 | 0.00 | 0.00 | 0.05 | 92 | 1012.2 |
| 20260508014636 | 57 | 138 | 2.0 | 3.0 | 0.00 | 0.00 | 0.05 | 91 | 1009.0 |
| 20260508014550 | 57 | 165 | 3.0 | 3.0 | 0.00 | 0.00 | 0.05 | 92 | 1012.5 |
| 20260508014136 | 57 | 118 | 3.0 | 4.0 | 0.00 | 0.00 | 0.05 | 91 | 1009.0 |
| 20260508014050 | 57 | 122 | 4.0 | 4.0 | 0.00 | 0.00 | 0.05 | 91 | 1012.2 |
| 20260508013636 | 57 | 111 | 2.0 | 3.0 | 0.00 | 0.00 | 0.05 | 91 | 1009.0 |
| 20260508013551 | 57 | 127 | 3.0 | 4.0 | 0.00 | 0.00 | 0.05 | 91 | 1012.5 |
| 20260508013136 | 57 | 157 | 3.0 | 4.0 | 0.00 | 0.00 | 0.05 | 91 | 1009.1 |
| 20260508013051 | 57 | 174 | 3.0 | 4.0 | 0.00 | 0.00 | 0.05 | 91 | 1012.2 |
| 20260508012636 | 57 | 168 | 1.0 | 3.0 | 0.00 | 0.00 | 0.05 | 91 | 1009.1 |
| 20260508012551 | 57 | 181 | 2.0 | 4.0 | 0.00 | 0.00 | 0.05 | 91 | 1012.5 |
| 20260508012136 | 57 | 136 | 2.0 | 4.0 | 0.00 | 0.00 | 0.05 | 91 | 1009.2 |
| 20260508012050 | 57 | 159 | 1.0 | 4.0 | 0.00 | 0.00 | 0.05 | 91 | 1012.5 |
| 20260508011637 | 57 | 152 | 2.0 | 5.0 | 0.00 | 0.00 | 0.05 | 91 | 1009.0 |
| 20260508011554 | 57 | 79 | 1.0 | 5.0 | 0.00 | 0.00 | 0.05 | 91 | 1012.5 |
| 20260508011136 | 57 | 132 | 2.0 | 6.0 | 0.00 | 0.00 | 0.05 | 90 | 1009.4 |
| 20260508011050 | 57 | 163 | 2.0 | 4.0 | 0.00 | 0.00 | 0.05 | 90 | 1012.9 |
| 20260508010636 | 58 | 119 | 4.0 | 5.0 | 0.00 | 0.00 | 0.05 | 90 | 1009.4 |
| 20260508010551 | 58 | 116 | 3.0 | 6.0 | 0.00 | 0.00 | 0.05 | 90 | 1012.9 |
| 20260508010136 | 58 | 81 | 3.0 | 5.0 | 0.00 | 0.00 | 0.05 | 90 | 1009.4 |
| 20260508010051 | 58 | 110 | 2.0 | 5.0 | 0.00 | 0.00 | 0.05 | 90 | 1012.5 |
| 20260508005636 | 58 | 80 | 3.0 | 5.0 | 0.00 | 0.00 | 0.05 | 90 | 1009.6 |
| 20260508005550 | 58 | 121 | 1.0 | 3.0 | 0.00 | 0.00 | 0.05 | 90 | 1012.9 |
| 20260508005136 | 58 | 92 | 2.0 | 6.0 | 0.01 | 0.00 | 0.05 | 90 | 1009.5 |
| 20260508005052 | 58 | 68 | 3.0 | 5.0 | 0.00 | 0.00 | 0.05 | 90 | 1012.9 |
| 20260508004636 | 58 | 72 | 2.0 | 7.0 | 0.01 | 0.00 | 0.05 | 90 | 1009.4 |
| 20260508004551 | 58 | 101 | 4.0 | 6.0 | 0.00 | 0.00 | 0.05 | 90 | 1012.9 |
| 20260508004136 | 58 | 85 | 6.0 | 8.0 | 0.02 | 0.00 | 0.05 | 90 | 1009.5 |
| 20260508004053 | 58 | 85 | 3.0 | 7.0 | 0.00 | 0.00 | 0.05 | 90 | 1012.9 |
| 20260508003636 | 58 | 56 | 4.0 | 7.0 | 0.02 | 0.00 | 0.05 | 91 | 1009.5 |
| 20260508003550 | 58 | 82 | 5.0 | 8.0 | 0.00 | 0.00 | 0.05 | 90 | 1012.9 |
| 20260508003136 | 58 | 64 | 4.0 | 6.0 | 0.02 | 0.00 | 0.05 | 91 | 1009.7 |
| 20260508003053 | 58 | 50 | 6.0 | 7.0 | 0.00 | 0.00 | 0.05 | 91 | 1013.2 |
| 20260508002636 | 58 | 57 | 4.0 | 7.0 | 0.02 | 0.00 | 0.05 | 91 | 1009.7 |
| 20260508002550 | 58 | 27 | 2.0 | 9.0 | 0.00 | 0.00 | 0.05 | 91 | 1012.9 |
| 20260508002136 | 58 | 83 | 5.0 | 7.0 | 0.03 | 0.00 | 0.05 | 91 | 1009.8 |
| 20260508002051 | 58 | 66 | 4.0 | 7.0 | 0.00 | 0.00 | 0.05 | 91 | 1013.2 |
| 20260508001636 | 58 | 85 | 4.0 | 6.0 | 0.02 | 0.00 | 0.05 | 91 | 1009.8 |
| 20260508001554 | 58 | 101 | 6.0 | 7.0 | 0.00 | 0.00 | 0.05 | 91 | 1013.2 |
| 20260508001136 | 58 | 85 | 4.0 | 6.0 | 0.03 | 0.00 | 0.05 | 91 | 1010.2 |
| 20260508001053 | 58 | 60 | 3.0 | 6.0 | 0.00 | 0.00 | 0.05 | 91 | 1013.5 |
| 20260508000636 | 58 | 80 | 2.0 | 7.0 | 0.04 | 0.00 | 0.05 | 91 | 1010.1 |
| 20260508000553 | 58 | 89 | 5.0 | 7.0 | 0.00 | 0.00 | 0.05 | 91 | 1013.5 |
| 20260508000136 | 58 | 110 | 4.0 | 8.0 | 0.04 | 0.00 | 0.05 | 91 | 1010.4 |
| 20260508000053 | 58 | 95 | 3.0 | 8.0 | 0.00 | 0.00 | 0.05 | 91 | 1013.5 |
| 20260507235637 | 58 | 102 | 3.0 | 8.0 | 0.04 | 0.00 | 0.05 | 91 | 1010.1 |
| 20260507235557 | 58 | 111 | 4.0 | 7.0 | 0.05 | 0.00 | 0.05 | 91 | 1013.5 |
| 20260507235136 | 59 | 102 | 3.0 | 8.0 | 0.04 | 0.00 | 0.05 | 91 | 1010.3 |
| 20260507235055 | 59 | 186 | 1.0 | 8.0 | 0.05 | 0.00 | 0.05 | 91 | 1013.5 |
| 20260507234637 | 59 | 80 | 7.0 | 9.0 | 0.05 | 0.00 | 0.04 | 91 | 1010.4 |
| 20260507234551 | 59 | 71 | 7.0 | 8.0 | 0.00 | 0.00 | 0.04 | 91 | 1013.5 |
| 20260507234137 | 59 | 80 | 4.0 | 9.0 | 0.05 | 0.00 | 0.04 | 91 | 1010.3 |
| 20260507234053 | 59 | 98 | 5.0 | 9.0 | 0.00 | 0.00 | 0.04 | 91 | 1013.5 |
| 20260507233636 | 59 | 100 | 6.0 | 7.0 | 0.05 | 0.00 | 0.04 | 91 | 1010.4 |
| 20260507233551 | 59 | 96 | 7.0 | 9.0 | 0.00 | 0.00 | 0.04 | 91 | 1013.9 |
| 20260507233136 | 59 | 100 | 6.0 | 7.0 | 0.05 | 0.00 | 0.04 | 91 | 1010.5 |
| 20260507233050 | 59 | 71 | 4.0 | 10.0 | 0.07 | 0.00 | 0.04 | 91 | 1013.9 |
| 20260507232637 | 59 | 72 | 10.0 | 9.0 | 0.05 | 0.00 | 0.04 | 91 | 1010.5 |
| 20260507232551 | 59 | 91 | 7.0 | 14.0 | 0.07 | 0.00 | 0.04 | 91 | 1013.9 |
| 20260507232136 | 59 | 87 | 7.0 | 11.0 | 0.05 | 0.00 | 0.03 | 91 | 1010.6 |
| 20260507232051 | 59 | 68 | 3.0 | 9.0 | 0.00 | 0.00 | 0.03 | 91 | 1013.9 |
| 20260507231636 | 59 | 106 | 7.0 | 11.0 | 0.04 | 0.00 | 0.03 | 91 | 1010.7 |
| 20260507231552 | 59 | 98 | 5.0 | 9.0 | 0.00 | 0.00 | 0.03 | 91 | 1013.9 |
| 20260507231136 | 59 | 106 | 7.0 | 11.0 | 0.04 | 0.00 | 0.03 | 91 | 1010.7 |
| 20260507231049 | 59 | 75 | 6.0 | 9.0 | 0.05 | 0.00 | 0.03 | 91 | 1013.9 |
| 20260507230636 | 59 | 78 | 6.0 | 12.0 | 0.04 | 0.00 | 0.02 | 90 | 1010.7 |
| 20260507230553 | 59 | 81 | 4.0 | 12.0 | 0.05 | 0.00 | 0.03 | 90 | 1013.9 |
| 20260507230136 | 59 | 78 | 6.0 | 13.0 | 0.03 | 0.00 | 0.02 | 90 | 1010.8 |
| 20260507230051 | 59 | 98 | 8.0 | 13.0 | 0.00 | 0.00 | 0.02 | 90 | 1014.2 |
| 20260507225637 | 60 | 56 | 6.0 | 12.0 | 0.03 | 0.00 | 0.02 | 90 | 1010.7 |
| 20260507225550 | 60 | 75 | 5.0 | 12.0 | 0.07 | 0.00 | 0.02 | 90 | 1013.9 |
| 20260507225136 | 60 | 96 | 7.0 | 10.0 | 0.02 | 0.00 | 0.01 | 90 | 1010.7 |
| 20260507225051 | 60 | 95 | 8.0 | 10.0 | 0.07 | 0.00 | 0.02 | 90 | 1014.2 |
| 20260507224637 | 60 | 85 | 5.0 | 10.0 | 0.02 | 0.00 | 0.01 | 90 | 1010.8 |
| 20260507224555 | 60 | 60 | 5.0 | 9.0 | 0.05 | 0.00 | 0.01 | 90 | 1014.2 |
| 20260507224136 | 60 | 85 | 5.0 | 10.0 | 0.02 | 0.00 | 0.00 | 90 | 1010.8 |
| 20260507224051 | 60 | 78 | 4.0 | 12.0 | 0.00 | 0.00 | 0.00 | 90 | 1014.2 |
| 20260507223636 | 60 | 89 | 7.0 | 10.0 | 0.02 | 0.00 | 0.00 | 90 | 1010.7 |
| 20260507223550 | 60 | 96 | 8.0 | 11.0 | 0.00 | 0.00 | 0.00 | 90 | 1014.2 |
| 20260507223136 | 60 | 76 | 8.0 | 10.0 | 0.02 | 0.00 | 0.00 | 90 | 1010.9 |
| 20260507223051 | 61 | 83 | 5.0 | 9.0 | 0.00 | 0.00 | 0.00 | 90 | 1014.2 |
| 20260507222637 | 61 | 91 | 5.0 | 9.0 | 0.02 | 0.00 | 0.00 | 89 | 1011.0 |
| 20260507222553 | 61 | 105 | 7.0 | 12.0 | 0.00 | 0.00 | 0.00 | 90 | 1014.2 |
| 20260507222136 | 61 | 91 | 5.0 | 9.0 | 0.02 | 0.00 | 0.00 | 89 | 1010.8 |
| 20260507222051 | 61 | 98 | 7.0 | 10.0 | 0.00 | 0.00 | 0.00 | 89 | 1014.2 |
| 20260507221637 | 61 | 80 | 3.0 | 11.0 | 0.02 | 0.00 | 0.00 | 89 | 1011.0 |
| 20260507221550 | 61 | 84 | 4.0 | 7.0 | 0.00 | 0.00 | 0.00 | 89 | 1014.2 |
| 20260507221136 | 61 | 78 | 3.0 | 9.0 | 0.02 | 0.00 | 0.00 | 89 | 1010.8 |
| 20260507221050 | 61 | 96 | 8.0 | 9.0 | 0.00 | 0.00 | 0.00 | 89 | 1014.2 |
| 20260507220637 | 61 | 87 | 7.0 | 8.0 | 0.02 | 0.00 | 0.00 | 88 | 1010.7 |
| 20260507220552 | 62 | 130 | 5.0 | 11.0 | 0.00 | 0.00 | 0.00 | 88 | 1013.9 |
| 20260507220136 | 62 | 94 | 7.0 | 8.0 | 0.02 | 0.00 | 0.01 | 87 | 1010.7 |
| 20260507220050 | 62 | 96 | 6.0 | 9.0 | 0.00 | 0.00 | 0.01 | 87 | 1013.9 |
| 20260507215636 | 62 | 101 | 7.0 | 13.0 | 0.01 | 0.00 | 0.01 | 86 | 1010.8 |
| 20260507215550 | 62 | 106 | 5.0 | 12.0 | 0.07 | 0.00 | 0.01 | 86 | 1014.2 |
| 20260507215136 | 62 | 101 | 5.0 | 11.0 | 0.01 | 0.00 | 0.00 | 85 | 1010.9 |
| 20260507215052 | 62 | 87 | 4.0 | 14.0 | 0.00 | 0.00 | 0.00 | 85 | 1014.2 |
| 20260507214637 | 62 | 102 | 6.0 | 11.0 | 0.01 | 0.00 | 0.00 | 85 | 1010.8 |
| 20260507214550 | 62 | 79 | 8.0 | 12.0 | 0.00 | 0.00 | 0.00 | 85 | 1014.2 |
| 20260507214136 | 62 | 102 | 6.0 | 11.0 | 0.00 | 0.00 | 0.00 | 85 | 1010.5 |
| 20260507214052 | 62 | 96 | 7.0 | 15.0 | 0.00 | 0.00 | 0.00 | 84 | 1014.2 |
| 20260507213636 | 62 | 47 | 7.0 | 10.0 | 0.00 | 0.00 | 0.00 | 84 | 1010.8 |
| 20260507213553 | 62 | 69 | 3.0 | 9.0 | 0.00 | 0.00 | 0.00 | 84 | 1013.9 |
| 20260507213136 | 62 | 47 | 7.0 | 10.0 | 0.00 | 0.00 | 0.00 | 84 | 1010.7 |
| 20260507213052 | 62 | 69 | 3.0 | 6.0 | 0.00 | 0.00 | 0.00 | 83 | 1014.2 |
| 20260507212636 | 62 | 25 | 2.0 | 7.0 | 0.00 | 0.00 | 0.00 | 82 | 1010.9 |
| 20260507212551 | 62 | 73 | 6.0 | 11.0 | 0.00 | 0.00 | 0.00 | 83 | 1013.9 |
| 20260507212137 | 62 | 25 | 5.0 | 7.0 | 0.00 | 0.00 | 0.00 | 82 | 1010.5 |
| 20260507212053 | 62 | 54 | 5.0 | 7.0 | 0.00 | 0.00 | 0.00 | 82 | 1013.9 |
| 20260507211636 | 62 | 61 | 3.0 | 9.0 | 0.00 | 0.00 | 0.00 | 82 | 1010.6 |
| 20260507211550 | 62 | 81 | 5.0 | 9.0 | 0.00 | 0.00 | 0.00 | 82 | 1013.9 |
| 20260507211136 | 62 | 81 | 4.0 | 5.0 | 0.00 | 0.00 | 0.00 | 82 | 1010.5 |
| 20260507211052 | 62 | 49 | 4.0 | 7.0 | 0.00 | 0.00 | 0.00 | 82 | 1013.9 |
| 20260507210637 | 62 | 65 | 4.0 | 5.0 | 0.00 | 0.00 | 0.00 | 82 | 1010.5 |
| 20260507210551 | 62 | 73 | 2.0 | 6.0 | 0.00 | 0.00 | 0.00 | 81 | 1013.9 |
| 20260507210136 | 62 | 65 | 4.0 | 5.0 | 0.00 | 0.00 | 0.00 | 81 | 1010.4 |
| 20260507210051 | 62 | 65 | 4.0 | 5.0 | 0.00 | 0.00 | 0.00 | 81 | 1013.5 |
| 20260507205636 | 62 | 63 | 4.0 | 9.0 | 0.00 | 0.00 | 0.00 | 81 | 1010.2 |
| 20260507205553 | 62 | 94 | 4.0 | 5.0 | 0.00 | 0.00 | 0.00 | 81 | 1013.5 |
| 20260507205136 | 62 | 37 | 3.0 | 7.0 | 0.00 | 0.00 | 0.00 | 81 | 1010.2 |
| 20260507205053 | 62 | 92 | 2.0 | 9.0 | 0.00 | 0.00 | 0.00 | 81 | 1013.5 |
| 20260507204636 | 62 | 86 | 5.0 | 7.0 | 0.00 | 0.00 | 0.00 | 81 | 1010.0 |
| 20260507204550 | 62 | 69 | 3.0 | 6.0 | 0.00 | 0.00 | 0.00 | 81 | 1013.5 |
| 20260507204136 | 62 | 106 | 2.0 | 5.0 | 0.00 | 0.00 | 0.00 | 81 | 1010.2 |
| 20260507204055 | 62 | 66 | 2.0 | 7.0 | 0.00 | 0.00 | 0.00 | 81 | 1013.5 |
| 20260507203636 | 62 | 106 | 2.0 | 5.0 | 0.00 | 0.00 | 0.00 | 81 | 1010.1 |
| 20260507203552 | 62 | 79 | 2.0 | 5.0 | 0.00 | 0.00 | 0.00 | 81 | 1013.5 |
| 20260507203136 | 62 | 69 | 3.0 | 5.0 | 0.00 | 0.00 | 0.00 | 80 | 1010.2 |
| 20260507203052 | 62 | 85 | 3.0 | 9.0 | 0.00 | 0.00 | 0.00 | 80 | 1013.5 |
| 20260507202636 | 62 | 42 | 4.0 | 4.0 | 0.00 | 0.00 | 0.00 | 80 | 1010.2 |
| 20260507202553 | 62 | 73 | 4.0 | 5.0 | 0.00 | 0.00 | 0.00 | 80 | 1013.5 |
| 20260507202136 | 62 | 42 | 4.0 | 4.0 | 0.00 | 0.00 | 0.00 | 80 | 1010.2 |
| 20260507202052 | 62 | 55 | 3.0 | 4.0 | 0.00 | 0.00 | 0.00 | 80 | 1013.5 |
| 20260507201637 | 62 | 103 | 7.0 | 8.0 | 0.00 | 0.00 | 0.00 | 79 | 1010.2 |
| 20260507201551 | 62 | 83 | 4.0 | 5.0 | 0.00 | 0.00 | 0.00 | 79 | 1013.5 |
| 20260507201136 | 62 | 110 | 4.0 | 6.0 | 0.00 | 0.00 | 0.00 | 78 | 1010.3 |
| 20260507201051 | 62 | 80 | 4.0 | 6.0 | 0.00 | 0.00 | 0.00 | 79 | 1013.5 |
| 20260507200636 | 62 | 118 | 0.0 | 8.0 | 0.00 | 0.00 | 0.00 | 78 | 1010.0 |
| 20260507200553 | 62 | 93 | 3.0 | 6.0 | 0.00 | 0.00 | 0.00 | 78 | 1013.5 |
| 20260507200136 | 62 | 118 | 3.0 | 8.0 | 0.00 | 0.00 | 0.00 | 78 | 1010.1 |
| 20260507200053 | 62 | 81 | 3.0 | 7.0 | 0.00 | 0.00 | 0.00 | 78 | 1013.2 |
| 20260507195636 | 62 | 98 | 3.0 | 6.0 | 0.00 | 0.00 | 0.00 | 78 | 1009.8 |
| 20260507195552 | 62 | 98 | 4.0 | 6.0 | 0.00 | 0.00 | 0.00 | 78 | 1013.2 |
| 20260507195136 | 62 | 77 | 4.0 | 4.0 | 0.00 | 0.00 | 0.00 | 77 | 1009.9 |
| 20260507195052 | 62 | 108 | 3.0 | 5.0 | 0.00 | 0.00 | 0.00 | 77 | 1013.2 |
| 20260507194636 | 62 | 77 | 4.0 | 4.0 | 0.00 | 0.00 | 0.00 | 77 | 1009.8 |
| 20260507194554 | 62 | 92 | 2.0 | 3.0 | 0.00 | 0.00 | 0.00 | 77 | 1013.2 |
| 20260507194136 | 62 | 189 | 2.0 | 3.0 | 0.00 | 0.00 | 0.00 | 77 | 1009.8 |
| 20260507194053 | 62 | 109 | 2.0 | 7.0 | 0.00 | 0.00 | 0.00 | 77 | 1013.2 |
| 20260507193636 | 62 | 107 | 5.0 | 6.0 | 0.00 | 0.00 | 0.00 | 77 | 1009.6 |
| 20260507193552 | 62 | 132 | 3.0 | 6.0 | 0.00 | 0.00 | 0.00 | 77 | 1012.9 |
| 20260507193136 | 62 | 123 | 3.0 | 5.0 | 0.00 | 0.00 | 0.00 | 78 | 1009.5 |
| 20260507193054 | 62 | 111 | 5.0 | 7.0 | 0.00 | 0.00 | 0.00 | 78 | 1012.9 |
| 20260507192636 | 62 | 123 | 3.0 | 5.0 | 0.00 | 0.00 | 0.00 | 78 | 1009.4 |
| 20260507192553 | 62 | 64 | 1.0 | 6.0 | 0.00 | 0.00 | 0.00 | 78 | 1012.9 |
| 20260507192136 | 62 | 57 | 3.0 | 7.0 | 0.00 | 0.00 | 0.00 | 77 | 1009.2 |
| 20260507192051 | 62 | 85 | 4.0 | 7.0 | 0.00 | 0.00 | 0.00 | 77 | 1012.5 |
| 20260507191636 | 62 | 60 | 2.0 | 6.0 | 0.00 | 0.00 | 0.00 | 77 | 1009.3 |
| 20260507191550 | 62 | 61 | 3.0 | 5.0 | 0.00 | 0.00 | 0.00 | 77 | 1012.5 |
| 20260507191136 | 62 | 53 | 4.0 | 8.0 | 0.00 | 0.00 | 0.00 | 77 | 1009.1 |
| 20260507191051 | 62 | 58 | 3.0 | 8.0 | 0.00 | 0.00 | 0.00 | 77 | 1012.5 |
| 20260507190636 | 62 | 91 | 5.0 | 8.0 | 0.00 | 0.00 | 0.00 | 77 | 1008.9 |
| 20260507190551 | 62 | 47 | 4.0 | 8.0 | 0.00 | 0.00 | 0.00 | 77 | 1012.2 |
| 20260507190136 | 62 | 91 | 5.0 | 6.0 | 0.00 | 0.00 | 0.00 | 77 | 1008.8 |
| 20260507190051 | 62 | 79 | 5.0 | 6.0 | 0.00 | 0.00 | 0.00 | 77 | 1012.2 |
| 20260507185636 | 62 | 44 | 3.0 | 10.0 | 0.00 | 0.00 | 0.00 | 78 | 1008.8 |
| 20260507185552 | 62 | 79 | 5.0 | 9.0 | 0.00 | 0.00 | 0.00 | 78 | 1012.2 |
| 20260507185136 | 62 | 54 | 3.0 | 6.0 | 0.00 | 0.00 | 0.00 | 78 | 1008.6 |
| 20260507185052 | 62 | 80 | 8.0 | 10.0 | 0.00 | 0.00 | 0.00 | 78 | 1012.2 |
| 20260507184636 | 62 | 58 | 4.0 | 6.0 | 0.00 | 0.00 | 0.00 | 78 | 1008.9 |
| 20260507184551 | 62 | 79 | 4.0 | 9.0 | 0.00 | 0.00 | 0.00 | 77 | 1012.2 |
| 20260507184136 | 62 | 49 | 3.0 | 6.0 | 0.00 | 0.00 | 0.00 | 77 | 1009.0 |
| 20260507184051 | 62 | 70 | 6.0 | 8.0 | 0.00 | 0.00 | 0.00 | 77 | 1012.2 |
| 20260507183636 | 62 | 71 | 2.0 | 8.0 | 0.00 | 0.00 | 0.00 | 77 | 1008.9 |
| 20260507183553 | 62 | 78 | 3.0 | 7.0 | 0.00 | 0.00 | 0.00 | 77 | 1012.2 |
| 20260507183136 | 62 | 46 | 3.0 | 5.0 | 0.00 | 0.00 | 0.00 | 77 | 1008.9 |
| 20260507183053 | 62 | 73 | 4.0 | 8.0 | 0.00 | 0.00 | 0.00 | 77 | 1012.2 |
| 20260507182636 | 62 | 77 | 5.0 | 12.0 | 0.00 | 0.00 | 0.00 | 76 | 1008.8 |
| 20260507182551 | 62 | 52 | 4.0 | 10.0 | 0.00 | 0.00 | 0.00 | 77 | 1012.2 |
| 20260507182136 | 62 | 52 | 6.0 | 12.0 | 0.00 | 0.00 | 0.00 | 76 | 1008.7 |
| 20260507182050 | 62 | 92 | 5.0 | 12.0 | 0.00 | 0.00 | 0.00 | 76 | 1012.2 |
| 20260507181637 | 62 | 52 | 3.0 | 9.0 | 0.00 | 0.00 | 0.00 | 76 | 1008.7 |
| 20260507181550 | 62 | 56 | 4.0 | 9.0 | 0.00 | 0.00 | 0.00 | 76 | 1012.2 |
| 20260507181136 | 62 | 78 | 5.0 | 9.0 | 0.00 | 0.00 | 0.00 | 76 | 1008.7 |
| 20260507181052 | 62 | 80 | 10.0 | 11.0 | 0.00 | 0.00 | 0.00 | 76 | 1012.2 |
| 20260507180636 | 62 | 67 | 7.0 | 11.0 | 0.00 | 0.00 | 0.00 | 76 | 1008.7 |
| 20260507180554 | 62 | 72 | 6.0 | 9.0 | 0.00 | 0.00 | 0.00 | 76 | 1012.2 |
| 20260507180136 | 62 | 67 | 7.0 | 11.0 | 0.00 | 0.00 | 0.00 | 76 | 1008.7 |
| 20260507180053 | 62 | 66 | 5.0 | 10.0 | 0.00 | 0.00 | 0.00 | 76 | 1012.2 |
| 20260507175636 | 62 | 82 | 3.0 | 9.0 | 0.00 | 0.00 | 0.00 | 76 | 1008.7 |
| 20260507175555 | 62 | 37 | 3.0 | 10.0 | 0.00 | 0.00 | 0.00 | 76 | 1011.9 |
| 20260507175136 | 62 | 71 | 6.0 | 12.0 | 0.00 | 0.00 | 0.00 | 76 | 1008.7 |
| 20260507175052 | 62 | 74 | 4.0 | 11.0 | 0.00 | 0.00 | 0.00 | 76 | 1011.9 |
| 20260507174636 | 62 | 66 | 6.0 | 11.0 | 0.00 | 0.00 | 0.00 | 79 | 1008.7 |
| 20260507174552 | 62 | 75 | 6.0 | 11.0 | 0.00 | 0.00 | 0.00 | 77 | 1012.2 |
| 20260507174136 | 62 | 75 | 6.0 | 11.0 | 0.00 | 0.00 | 0.00 | 80 | 1008.6 |
| 20260507174052 | 62 | 42 | 5.0 | 8.0 | 0.00 | 0.00 | 0.00 | 79 | 1011.9 |
| 20260507173636 | 62 | 67 | 8.0 | 13.0 | 0.00 | 0.00 | 0.00 | 81 | 1008.5 |
| 20260507173551 | 62 | 64 | 4.0 | 11.0 | 0.00 | 0.00 | 0.00 | 80 | 1011.9 |
| 20260507173136 | 62 | 67 | 9.0 | 13.0 | 0.00 | 0.00 | 0.00 | 81 | 1008.9 |
| 20260507173053 | 62 | 81 | 5.0 | 11.0 | 0.00 | 0.00 | 0.00 | 81 | 1011.9 |
| 20260507172636 | 62 | 83 | 9.0 | 10.0 | 0.00 | 0.00 | 0.00 | 81 | 1008.9 |
| 20260507172552 | 62 | 76 | 7.0 | 10.0 | 0.00 | 0.00 | 0.00 | 81 | 1012.2 |
| 20260507172136 | 62 | 70 | 5.0 | 13.0 | 0.00 | 0.00 | 0.00 | 81 | 1008.8 |
| 20260507172052 | 62 | 59 | 5.0 | 10.0 | 0.00 | 0.00 | 0.00 | 81 | 1012.2 |
| 20260507171636 | 62 | 62 | 6.0 | 11.0 | 0.00 | 0.00 | 0.00 | 81 | 1008.8 |
| 20260507171552 | 62 | 40 | 7.0 | 13.0 | 0.00 | 0.00 | 0.00 | 81 | 1012.2 |
| 20260507171136 | 62 | 77 | 6.0 | 12.0 | 0.00 | 0.00 | 0.00 | 80 | 1008.7 |
| 20260507171051 | 62 | 73 | 4.0 | 9.0 | 0.00 | 0.00 | 0.00 | 81 | 1012.2 |
| 20260507170636 | 62 | 75 | 6.0 | 11.0 | 0.00 | 0.00 | 0.00 | 80 | 1008.8 |
| 20260507170554 | 62 | 68 | 9.0 | 9.0 | 0.00 | 0.00 | 0.00 | 81 | 1012.2 |
| 20260507170136 | 62 | 81 | 7.0 | 10.0 | 0.01 | 0.00 | 0.00 | 81 | 1008.9 |
| 20260507170053 | 62 | 72 | 6.0 | 10.0 | 0.00 | 0.00 | 0.00 | 80 | 1012.2 |
| 20260507165636 | 62 | 81 | 5.0 | 10.0 | 0.01 | 0.00 | 0.00 | 81 | 1008.7 |
| 20260507165553 | 62 | 84 | 6.0 | 8.0 | 0.00 | 0.00 | 0.00 | 81 | 1012.2 |
| 20260507165136 | 62 | 31 | 5.0 | 9.0 | 0.01 | 0.00 | 0.00 | 79 | 1008.8 |
| 20260507165052 | 62 | 60 | 5.0 | 10.0 | 0.00 | 0.00 | 0.00 | 80 | 1012.2 |
| 20260507164636 | 62 | 88 | 5.0 | 10.0 | 0.01 | 0.00 | 0.00 | 78 | 1008.8 |
| 20260507164552 | 62 | 68 | 7.0 | 9.0 | 0.00 | 0.00 | 0.00 | 79 | 1012.2 |
| 20260507164136 | 62 | 39 | 4.0 | 5.0 | 0.01 | 0.00 | 0.00 | 78 | 1008.5 |
| 20260507164054 | 62 | 74 | 6.0 | 10.0 | 0.00 | 0.00 | 0.00 | 78 | 1012.2 |
| 20260507163636 | 62 | 78 | 5.0 | 10.0 | 0.01 | 0.00 | 0.00 | 79 | 1008.8 |
| 20260507163552 | 62 | 52 | 3.0 | 7.0 | 0.00 | 0.00 | 0.00 | 78 | 1012.2 |
| 20260507163137 | 62 | 78 | 5.0 | 10.0 | 0.02 | 0.00 | 0.00 | 79 | 1009.0 |
| 20260507163052 | 62 | 82 | 5.0 | 10.0 | 0.00 | 0.00 | 0.00 | 79 | 1012.2 |
| 20260507162636 | 62 | 19 | 3.0 | 5.0 | 0.02 | 0.00 | 0.00 | 80 | 1008.8 |
| 20260507162550 | 62 | 80 | 3.0 | 7.0 | 0.00 | 0.00 | 0.00 | 80 | 1012.2 |
| 20260507162136 | 62 | 87 | 3.0 | 6.0 | 0.02 | 0.00 | 0.00 | 80 | 1008.8 |
| 20260507162053 | 62 | 57 | 3.0 | 5.0 | 0.00 | 0.00 | 0.00 | 80 | 1012.2 |
| 20260507161636 | 62 | 65 | 4.0 | 8.0 | 0.02 | 0.00 | 0.00 | 80 | 1008.7 |
| 20260507161552 | 62 | 78 | 2.0 | 6.0 | 0.00 | 0.00 | 0.00 | 80 | 1012.2 |
| 20260507161136 | 63 | 86 | 4.0 | 7.0 | 0.01 | 0.00 | 0.00 | 78 | 1008.9 |
| 20260507161056 | 63 | 112 | 5.0 | 9.0 | 0.00 | 0.00 | 0.00 | 79 | 1012.2 |
| 20260507160636 | 63 | 108 | 4.0 | 6.0 | 0.01 | 0.00 | 0.00 | 78 | 1008.8 |
| 20260507160553 | 63 | 95 | 6.0 | 8.0 | 0.00 | 0.00 | 0.00 | 78 | 1012.2 |
| 20260507160136 | 63 | 124 | 2.0 | 4.0 | 0.01 | 0.00 | 0.00 | 78 | 1009.0 |
| 20260507160052 | 63 | 107 | 6.0 | 6.0 | 0.00 | 0.00 | 0.00 | 78 | 1012.2 |
| 20260507155636 | 64 | 145 | 3.0 | 8.0 | 0.01 | 0.00 | 0.00 | 76 | 1008.7 |
| 20260507155553 | 64 | 68 | 3.0 | 5.0 | 0.00 | 0.00 | 0.00 | 78 | 1012.2 |
| 20260507155136 | 64 | 128 | 4.0 | 5.0 | 0.01 | 0.00 | 0.00 | 75 | 1008.8 |
| 20260507155053 | 64 | 108 | 7.0 | 8.0 | 0.00 | 0.00 | 0.00 | 76 | 1012.2 |
| 20260507154636 | 64 | 131 | 4.0 | 11.0 | 0.00 | 0.00 | 0.00 | 75 | 1008.9 |
| 20260507154552 | 64 | 163 | 2.0 | 5.0 | 0.00 | 0.00 | 0.00 | 75 | 1012.2 |
| 20260507154136 | 64 | 139 | 7.0 | 10.0 | 0.00 | 0.00 | 0.00 | 72 | 1008.8 |
| 20260507154053 | 65 | 126 | 7.0 | 9.0 | 0.00 | 0.00 | 0.00 | 73 | 1012.2 |
| 20260507153637 | 65 | 119 | 7.0 | 10.0 | 0.00 | 0.00 | 0.00 | 72 | 1008.7 |
| 20260507153553 | 65 | 125 | 4.0 | 10.0 | 0.00 | 0.00 | 0.00 | 71 | 1012.2 |
| 20260507153136 | 66 | 114 | 2.0 | 7.0 | 0.00 | 0.00 | 0.00 | 70 | 1008.8 |
| 20260507153053 | 66 | 134 | 5.0 | 7.0 | 0.00 | 0.00 | 0.00 | 69 | 1012.2 |
| 20260507152636 | 66 | 65 | 8.0 | 9.0 | 0.00 | 0.00 | 0.00 | 65 | 1008.8 |
| 20260507152552 | 66 | 108 | 4.0 | 9.0 | 0.00 | 0.00 | 0.00 | 66 | 1012.2 |
| 20260507152136 | 65 | 97 | 5.0 | 7.0 | 0.00 | 0.00 | 0.00 | 65 | 1009.0 |
| 20260507152052 | 66 | 79 | 4.0 | 11.0 | 0.00 | 0.00 | 0.00 | 65 | 1012.5 |
| 20260507151636 | 65 | 86 | 9.0 | 12.0 | 0.00 | 0.00 | 0.00 | 65 | 1008.9 |
| 20260507151553 | 65 | 79 | 6.0 | 9.0 | 0.00 | 0.00 | 0.00 | 65 | 1012.2 |
| 20260507151136 | 65 | 86 | 5.0 | 12.0 | 0.00 | 0.00 | 0.00 | 68 | 1008.9 |
| 20260507151052 | 66 | 61 | 5.0 | 13.0 | 0.00 | 0.00 | 0.00 | 70 | 1012.5 |
| 20260507150636 | 66 | 108 | 5.0 | 11.0 | 0.00 | 0.00 | 0.00 | 73 | 1008.8 |
| 20260507150553 | 66 | 114 | 6.0 | 11.0 | 0.00 | 0.00 | 0.00 | 73 | 1012.2 |
| 20260507150136 | 66 | 107 | 3.0 | 9.0 | 0.00 | 0.00 | 0.00 | 72 | 1008.9 |
| 20260507150052 | 66 | 91 | 5.0 | 13.0 | 0.00 | 0.00 | 0.00 | 72 | 1012.2 |
| 20260507145636 | 66 | 157 | 8.0 | 11.0 | 0.00 | 0.00 | 0.00 | 71 | 1008.8 |
| 20260507145552 | 66 | 136 | 6.0 | 12.0 | 0.00 | 0.00 | 0.00 | 71 | 1012.5 |
| 20260507145136 | 66 | 111 | 6.0 | 14.0 | 0.00 | 0.00 | 0.00 | 69 | 1008.7 |
| 20260507145053 | 66 | 96 | 7.0 | 10.0 | 0.00 | 0.00 | 0.00 | 70 | 1012.2 |
| 20260507144636 | 67 | 111 | 6.0 | 14.0 | 0.00 | 0.00 | 0.00 | 69 | 1008.9 |
| 20260507144552 | 67 | 105 | 6.0 | 13.0 | 0.00 | 0.00 | 0.00 | 69 | 1012.2 |
| 20260507144136 | 67 | 100 | 5.0 | 11.0 | 0.00 | 0.00 | 0.00 | 68 | 1008.9 |
| 20260507144053 | 67 | 143 | 7.0 | 14.0 | 0.00 | 0.00 | 0.00 | 68 | 1012.2 |
| 20260507143637 | 67 | 95 | 3.0 | 15.0 | 0.00 | 0.00 | 0.00 | 67 | 1008.8 |
| 20260507143553 | 68 | 108 | 11.0 | 15.0 | 0.00 | 0.00 | 0.00 | 67 | 1012.2 |
| 20260507143136 | 68 | 95 | 7.0 | 10.0 | 0.00 | 0.00 | 0.00 | 65 | 1008.8 |
| 20260507143053 | 68 | 121 | 6.0 | 12.0 | 0.00 | 0.00 | 0.00 | 64 | 1012.2 |
| 20260507142637 | 68 | 104 | 8.0 | 10.0 | 0.00 | 0.00 | 0.00 | 63 | 1009.0 |
| 20260507142555 | 68 | 133 | 4.0 | 10.0 | 0.00 | 0.00 | 0.00 | 63 | 1012.2 |
| 20260507142136 | 68 | 110 | 11.0 | 10.0 | 0.00 | 0.00 | 0.00 | 62 | 1008.7 |
| 20260507142053 | 68 | 117 | 6.0 | 10.0 | 0.00 | 0.00 | 0.00 | 62 | 1012.2 |
| 20260507141636 | 68 | 108 | 10.0 | 11.0 | 0.00 | 0.00 | 0.00 | 63 | 1008.8 |
| 20260507141551 | 68 | 106 | 9.0 | 16.0 | 0.00 | 0.00 | 0.00 | 64 | 1012.2 |
| 20260507141136 | 69 | 99 | 9.0 | 12.0 | 0.00 | 0.00 | 0.00 | 64 | 1009.0 |
| 20260507141053 | 68 | 120 | 3.0 | 11.0 | 0.00 | 0.00 | 0.00 | 64 | 1012.5 |
| 20260507140636 | 68 | 87 | 6.0 | 12.0 | 0.00 | 0.00 | 0.00 | 64 | 1009.0 |
| 20260507140552 | 68 | 104 | 9.0 | 12.0 | 0.00 | 0.00 | 0.00 | 64 | 1012.5 |
| 20260507140136 | 69 | 71 | 6.0 | 13.0 | 0.00 | 0.00 | 0.00 | 62 | 1008.9 |
| 20260507140053 | 69 | 98 | 6.0 | 13.0 | 0.00 | 0.00 | 0.00 | 62 | 1012.5 |
| 20260507135636 | 69 | 71 | 8.0 | 13.0 | 0.00 | 0.00 | 0.00 | 62 | 1008.8 |
| 20260507135552 | 69 | 85 | 7.0 | 13.0 | 0.00 | 0.00 | 0.00 | 62 | 1012.5 |
| 20260507135136 | 68 | 80 | 8.0 | 11.0 | 0.00 | 0.00 | 0.00 | 61 | 1009.3 |
| 20260507135053 | 69 | 76 | 6.0 | 11.0 | 0.00 | 0.00 | 0.00 | 61 | 1012.9 |
| 20260507134636 | 69 | 75 | 9.0 | 14.0 | 0.00 | 0.00 | 0.00 | 61 | 1009.1 |
| 20260507134552 | 69 | 79 | 5.0 | 15.0 | 0.00 | 0.00 | 0.00 | 61 | 1012.2 |
| 20260507134136 | 69 | 111 | 6.0 | 10.0 | 0.00 | 0.00 | 0.00 | 62 | 1008.8 |
| 20260507134052 | 69 | 46 | 4.0 | 11.0 | 0.00 | 0.00 | 0.00 | 62 | 1012.2 |
| 20260507133636 | 69 | 111 | 6.0 | 10.0 | 0.00 | 0.00 | 0.00 | 62 | 1009.0 |
| 20260507133552 | 69 | 79 | 8.0 | 11.0 | 0.00 | 0.00 | 0.00 | 62 | 1012.5 |
| 20260507133136 | 69 | 45 | 5.0 | 11.0 | 0.00 | 0.00 | 0.00 | 61 | 1009.2 |
| 20260507133050 | 69 | 104 | 4.0 | 7.0 | 0.00 | 0.00 | 0.00 | 61 | 1012.5 |
| 20260507132637 | 69 | 68 | 5.0 | 14.0 | 0.00 | 0.00 | 0.00 | 61 | 1009.2 |
| 20260507132551 | 69 | 109 | 5.0 | 9.0 | 0.00 | 0.00 | 0.00 | 61 | 1012.5 |
| 20260507132136 | 69 | 180 | 2.0 | 11.0 | 0.00 | 0.00 | 0.00 | 60 | 1009.3 |
| 20260507132057 | 69 | 76 | 2.0 | 14.0 | 0.00 | 0.00 | 0.00 | 61 | 1012.9 |
| 20260507131636 | 69 | 180 | 2.0 | 11.0 | 0.00 | 0.00 | 0.00 | 60 | 1009.1 |
| 20260507131553 | 69 | 67 | 2.0 | 12.0 | 0.00 | 0.00 | 0.00 | 60 | 1012.9 |
| 20260507131136 | 69 | 76 | 7.0 | 10.0 | 0.00 | 0.00 | 0.00 | 59 | 1009.5 |
| 20260507131054 | 69 | 113 | 2.0 | 10.0 | 0.00 | 0.00 | 0.00 | 59 | 1012.9 |
| 20260507130636 | 69 | 67 | 7.0 | 9.0 | 0.00 | 0.00 | 0.00 | 60 | 1009.5 |
| 20260507130553 | 69 | 92 | 9.0 | 9.0 | 0.00 | 0.00 | 0.00 | 60 | 1012.9 |
| 20260507130136 | 69 | 85 | 4.0 | 10.0 | 0.00 | 0.00 | 0.00 | 60 | 1009.4 |
| 20260507130052 | 69 | 102 | 7.0 | 12.0 | 0.00 | 0.00 | 0.00 | 59 | 1012.9 |
| 20260507125636 | 68 | 79 | 6.0 | 11.0 | 0.00 | 0.00 | 0.00 | 60 | 1009.3 |
| 20260507125555 | 69 | 83 | 5.0 | 13.0 | 0.00 | 0.00 | 0.00 | 60 | 1012.9 |
| 20260507125136 | 69 | 79 | 6.0 | 11.0 | 0.00 | 0.00 | 0.00 | 60 | 1009.4 |
| 20260507125052 | 69 | 82 | 8.0 | 11.0 | 0.00 | 0.00 | 0.00 | 60 | 1012.9 |
| 20260507124636 | 69 | 64 | 9.0 | 14.0 | 0.00 | 0.00 | 0.00 | 58 | 1009.3 |
| 20260507124552 | 69 | 84 | 12.0 | 16.0 | 0.00 | 0.00 | 0.00 | 59 | 1012.9 |
| 20260507124136 | 69 | 50 | 8.0 | 14.0 | 0.00 | 0.00 | 0.00 | 58 | 1009.3 |
| 20260507124051 | 69 | 118 | 5.0 | 13.0 | 0.00 | 0.00 | 0.00 | 58 | 1012.5 |
| 20260507123636 | 69 | 50 | 8.0 | 11.0 | 0.00 | 0.00 | 0.00 | 57 | 1009.3 |
| 20260507123552 | 69 | 44 | 9.0 | 11.0 | 0.00 | 0.00 | 0.00 | 57 | 1012.9 |
| 20260507123136 | 69 | 88 | 5.0 | 12.0 | 0.00 | 0.00 | 0.00 | 59 | 1009.3 |
| 20260507123052 | 69 | 42 | 8.0 | 12.0 | 0.00 | 0.00 | 0.00 | 59 | 1012.9 |
| 20260507122636 | 69 | 88 | 11.0 | 12.0 | 0.00 | 0.00 | 0.00 | 59 | 1009.4 |
| 20260507122553 | 69 | 98 | 6.0 | 12.0 | 0.00 | 0.00 | 0.00 | 59 | 1012.9 |
| 20260507122136 | 69 | 102 | 11.0 | 13.0 | 0.00 | 0.00 | 0.00 | 58 | 1009.6 |
| 20260507122053 | 69 | 82 | 7.0 | 13.0 | 0.00 | 0.00 | 0.00 | 58 | 1012.9 |
| 20260507121636 | 68 | 85 | 5.0 | 9.0 | 0.00 | 0.00 | 0.00 | 58 | 1009.8 |
| 20260507121552 | 68 | 70 | 5.0 | 12.0 | 0.00 | 0.00 | 0.00 | 58 | 1012.9 |
| 20260507121136 | 68 | 85 | 6.0 | 10.0 | 0.00 | 0.00 | 0.00 | 56 | 1009.6 |
| 20260507121051 | 69 | 89 | 8.0 | 13.0 | 0.00 | 0.00 | 0.00 | 57 | 1012.9 |
| 20260507120636 | 68 | 85 | 9.0 | 10.0 | 0.00 | 0.00 | 0.00 | 56 | 1009.6 |
| 20260507120550 | 68 | 34 | 2.0 | 10.0 | 0.00 | 0.00 | 0.00 | 56 | 1012.9 |
| 20260507120136 | 68 | 96 | 11.0 | 12.0 | 0.00 | 0.00 | 0.00 | 56 | 1009.6 |
| 20260507120052 | 68 | 61 | 9.0 | 13.0 | 0.00 | 0.00 | 0.00 | 57 | 1013.2 |
| 20260507115636 | 68 | 96 | 11.0 | 12.0 | 0.00 | 0.00 | 0.00 | 56 | 1009.7 |
| 20260507115553 | 68 | 69 | 7.0 | 13.0 | 0.00 | 0.00 | 0.00 | 56 | 1013.2 |
| 20260507115136 | 68 | 46 | 5.0 | 10.0 | 0.00 | 0.00 | 0.00 | 57 | 1010.0 |
| 20260507115050 | 68 | 71 | 6.0 | 17.0 | 0.00 | 0.00 | 0.00 | 57 | 1013.5 |
| 20260507114636 | 68 | 46 | 8.0 | 10.0 | 0.00 | 0.00 | 0.00 | 60 | 1009.9 |
| 20260507114552 | 68 | 68 | 6.0 | 14.0 | 0.00 | 0.00 | 0.00 | 60 | 1013.2 |
| 20260507114136 | 68 | 75 | 9.0 | 15.0 | 0.00 | 0.00 | 0.00 | 59 | 1010.1 |
| 20260507114053 | 68 | 66 | 3.0 | 16.0 | 0.00 | 0.00 | 0.00 | 59 | 1013.5 |
| 20260507113636 | 68 | 66 | 7.0 | 15.0 | 0.00 | 0.00 | 0.00 | 60 | 1010.1 |
| 20260507113553 | 68 | 86 | 10.0 | 15.0 | 0.00 | 0.00 | 0.00 | 59 | 1013.5 |
| 20260507113136 | 68 | 80 | 11.0 | 13.0 | 0.00 | 0.00 | 0.00 | 60 | 1010.2 |
| 20260507113053 | 67 | 137 | 4.0 | 15.0 | 0.00 | 0.00 | 0.00 | 60 | 1013.5 |
| 20260507112637 | 67 | 80 | 11.0 | 13.0 | 0.00 | 0.00 | 0.00 | 60 | 1010.1 |
| 20260507112552 | 67 | 94 | 9.0 | 11.0 | 0.00 | 0.00 | 0.00 | 60 | 1013.5 |
| 20260507112136 | 68 | 107 | 10.0 | 13.0 | 0.00 | 0.00 | 0.00 | 60 | 1010.5 |
| 20260507112052 | 68 | 44 | 7.0 | 14.0 | 0.00 | 0.00 | 0.00 | 59 | 1013.9 |
| 20260507111636 | 67 | 107 | 10.0 | 13.0 | 0.00 | 0.00 | 0.00 | 60 | 1010.3 |
| 20260507111553 | 67 | 89 | 5.0 | 10.0 | 0.00 | 0.00 | 0.00 | 61 | 1013.5 |
| 20260507111136 | 67 | 84 | 4.0 | 9.0 | 0.00 | 0.00 | 0.00 | 62 | 1010.5 |
| 20260507111053 | 67 | 80 | 3.0 | 13.0 | 0.00 | 0.00 | 0.00 | 61 | 1013.5 |
| 20260507110636 | 67 | 95 | 9.0 | 13.0 | 0.00 | 0.00 | 0.00 | 61 | 1010.5 |
| 20260507110556 | 67 | 54 | 6.0 | 12.0 | 0.00 | 0.00 | 0.00 | 61 | 1013.9 |
| 20260507110136 | 67 | 120 | 8.0 | 12.0 | 0.00 | 0.00 | 0.00 | 62 | 1010.5 |
| 20260507110052 | 67 | 101 | 7.0 | 13.0 | 0.00 | 0.00 | 0.00 | 61 | 1013.9 |
| 20260507105636 | 67 | 88 | 5.0 | 12.0 | 0.00 | 0.00 | 0.00 | 61 | 1010.4 |
| 20260507105554 | 67 | 124 | 9.0 | 13.0 | 0.00 | 0.00 | 0.00 | 62 | 1013.9 |
| 20260507105136 | 67 | 113 | 9.0 | 11.0 | 0.00 | 0.00 | 0.00 | 61 | 1010.7 |
| 20260507105052 | 67 | 78 | 10.0 | 12.0 | 0.00 | 0.00 | 0.00 | 61 | 1014.2 |
| 20260507104636 | 67 | 100 | 10.0 | 13.0 | 0.00 | 0.00 | 0.00 | 61 | 1010.3 |
| 20260507104136 | 68 | 107 | 10.0 | 15.0 | 0.00 | 0.00 | 0.00 | 61 | 1010.4 |
| 20260507104116 | 68 | 96 | 8.0 | 13.0 | 0.00 | 0.00 | 0.00 | 60 | 1013.9 |
| 20260507103637 | 69 | 121 | 15.0 | 17.0 | 0.00 | 0.00 | 0.00 | 60 | 1010.3 |
| 20260507103551 | 68 | 103 | 13.0 | 16.0 | 0.00 | 0.00 | 0.00 | 61 | 1013.5 |
| 20260507103136 | 69 | 121 | 15.0 | 17.0 | 0.00 | 0.00 | 0.00 | 60 | 1010.4 |
| 20260507103051 | 69 | 123 | 13.0 | 14.0 | 0.00 | 0.00 | 0.00 | 59 | 1013.5 |
| 20260507102636 | 68 | 126 | 5.0 | 8.0 | 0.00 | 0.00 | 0.00 | 64 | 1010.3 |
| 20260507102552 | 69 | 104 | 4.0 | 17.0 | 0.00 | 0.00 | 0.00 | 60 | 1013.5 |
| 20260507102136 | 68 | 126 | 9.0 | 8.0 | 0.00 | 0.00 | 0.00 | 64 | 1010.6 |
| 20260507102054 | 68 | 101 | 5.0 | 8.0 | 0.00 | 0.00 | 0.00 | 64 | 1013.9 |
| 20260507101636 | 68 | 70 | 8.0 | 11.0 | 0.00 | 0.00 | 0.00 | 65 | 1010.3 |
| 20260507101550 | 68 | 87 | 7.0 | 15.0 | 0.00 | 0.00 | 0.00 | 64 | 1013.9 |
| 20260507101136 | 68 | 70 | 8.0 | 11.0 | 0.00 | 0.00 | 0.00 | 65 | 1010.2 |
| 20260507101051 | 68 | 41 | 7.0 | 9.0 | 0.00 | 0.00 | 0.00 | 65 | 1013.9 |
| 20260507100636 | 68 | 27 | 9.0 | 11.0 | 0.00 | 0.00 | 0.00 | 63 | 1010.3 |
| 20260507100552 | 68 | 105 | 4.0 | 13.0 | 0.00 | 0.00 | 0.00 | 63 | 1013.5 |